• In Portugal
  • List of Countries
  • For 7 days
  • Water Temperature
  • Satellite Maps
  • Weather Map
  • Weather Widgets
  • user-avatar
    Login

    Hourly Weather Salta

    Today, 18 February, Sunday

    Time Temperature Precipitation Wind Pressure Humidity
    00:00 +18°C° 0.7 mm 0 mps 649 mmHg 87%
    01:00 +18°C° 0.7 mm 0 mps 649 mmHg 86%
    02:00 +18°C° 0.7 mm 0 mps 649 mmHg 86%
    03:00 +18°C° 0.6 mm 0 mps 649 mmHg 86%
    04:00 +18°C° 0.6 mm 0 mps 648 mmHg 86%
    05:00 +17°C° 0.6 mm 0 mps 648 mmHg 86%
    06:00 +20°C° 0.5 mm 1 mps 648 mmHg 82%
    07:00 +21°C° 0.5 mm 1 mps 649 mmHg 78%
    08:00 +22°C° 0.5 mm 1 mps 649 mmHg 74%
    09:00 +24°C° 0.9 mm 1 mps 649 mmHg 67%
    10:00 +25°C° 0.9 mm 2 mps 649 mmHg 60%
    11:00 +27°C° 0.9 mm 2 mps 649 mmHg 53%
    12:00 +28°C° 0.2 mm 2 mps 649 mmHg 50%
    13:00 +29°C° 0.2 mm 2 mps 648 mmHg 47%
    14:00 +30°C° 0.2 mm 2 mps 647 mmHg 44%
    15:00 +29°C° 0.4 mm 3 mps 647 mmHg 47%
    16:00 +28°C° 0.4 mm 3 mps 646 mmHg 50%
    17:00 +28°C° 0.4 mm 3 mps 646 mmHg 53%
    18:00 +26°C° 0.6 mm 2 mps 646 mmHg 62%
    19:00 +24°C° 0.6 mm 2 mps 646 mmHg 72%
    20:00 +22°C° 0.6 mm 1 mps 646 mmHg 81%
    21:00 +22°C° 1.6 mm 1 mps 646 mmHg 82%
    22:00 +21°C° 1.6 mm 1 mps 647 mmHg 82%
    23:00 +21°C° 1.6 mm 1 mps 647 mmHg 83%

    Tomorrow, 19 February, Monday

    Time Temperature Precipitation Wind Pressure Humidity
    00:00 +21°C° 0.6 mm 1 mps 647 mmHg 81%
    01:00 +20°C° 0.6 mm 1 mps 646 mmHg 80%
    02:00 +20°C° 0.6 mm 1 mps 646 mmHg 78%
    03:00 +20°C° 0.6 mm 1 mps 646 mmHg 78%
    04:00 +20°C° 0.6 mm 1 mps 646 mmHg 78%
    05:00 +20°C° 0.6 mm 1 mps 646 mmHg 77%
    06:00 +21°C° 0 mm 1 mps 647 mmHg 71%
    07:00 +23°C° 0 mm 1 mps 648 mmHg 65%
    08:00 +24°C° 0 mm 1 mps 649 mmHg 59%
    09:00 +26°C° 0.2 mm 1 mps 649 mmHg 52%
    10:00 +28°C° 0.2 mm 2 mps 649 mmHg 45%
    11:00 +30°C° 0.2 mm 2 mps 649 mmHg 37%
    12:00 +30°C° 0.5 mm 2 mps 649 mmHg 37%
    13:00 +31°C° 0.5 mm 3 mps 648 mmHg 36%
    14:00 +31°C° 0.5 mm 3 mps 648 mmHg 35%
    15:00 +31°C° 0.8 mm 3 mps 647 mmHg 40%
    16:00 +30°C° 0.8 mm 3 mps 647 mmHg 45%
    17:00 +29°C° 0.8 mm 3 mps 646 mmHg 51%
    18:00 +26°C° 2 mm 2 mps 646 mmHg 60%
    19:00 +24°C° 2 mm 2 mps 646 mmHg 70%
    20:00 +22°C° 2 mm 1 mps 647 mmHg 79%
    21:00 +22°C° 0.9 mm 1 mps 647 mmHg 81%
    22:00 +21°C° 0.9 mm 1 mps 647 mmHg 82%
    23:00 +21°C° 0.9 mm 1 mps 648 mmHg 84%

    Day after tomorrow, 20 February, Tuesday

    Time Temperature Precipitation Wind Pressure Humidity
    00:00 +21°C° 1.2 mm 1 mps 648 mmHg 83%
    01:00 +20°C° 1.2 mm 1 mps 647 mmHg 82%
    02:00 +20°C° 1.2 mm 1 mps 647 mmHg 82%
    03:00 +20°C° 0.3 mm 1 mps 647 mmHg 80%
    04:00 +20°C° 0.3 mm 1 mps 647 mmHg 79%
    05:00 +20°C° 0.3 mm 1 mps 647 mmHg 78%
    06:00 +21°C° 0.3 mm 1 mps 648 mmHg 72%
    07:00 +22°C° 0.3 mm 1 mps 649 mmHg 67%
    08:00 +24°C° 0.3 mm 1 mps 650 mmHg 62%
    09:00 +26°C° 0.5 mm 1 mps 650 mmHg 56%
    10:00 +28°C° 0.5 mm 2 mps 651 mmHg 51%
    11:00 +29°C° 0.5 mm 2 mps 651 mmHg 45%
    12:00 +30°C° 1.2 mm 3 mps 651 mmHg 45%
    13:00 +30°C° 1.2 mm 3 mps 650 mmHg 46%
    14:00 +30°C° 1.2 mm 3 mps 650 mmHg 46%
    15:00 +29°C° 1.4 mm 3 mps 649 mmHg 50%
    16:00 +28°C° 1.4 mm 3 mps 649 mmHg 54%
    17:00 +28°C° 1.4 mm 2 mps 648 mmHg 58%
    18:00 +26°C° 2.1 mm 2 mps 649 mmHg 65%
    19:00 +24°C° 2.1 mm 2 mps 649 mmHg 73%
    20:00 +21°C° 2.1 mm 2 mps 649 mmHg 80%
    21:00 +21°C° 1.7 mm 2 mps 650 mmHg 82%
    22:00 +21°C° 1.7 mm 1 mps 650 mmHg 84%
    23:00 +20°C° 1.7 mm 1 mps 651 mmHg 86%

    21 February, Wednesday

    Time Temperature Precipitation Wind Pressure Humidity
    00:00 +20°C° 1.1 mm 1 mps 651 mmHg 86%
    01:00 +20°C° 1.1 mm 1 mps 651 mmHg 86%
    02:00 +19°C° 1.1 mm 1 mps 651 mmHg 85%
    03:00 +19°C° 0 mm 1 mps 651 mmHg 84%
    04:00 +19°C° 0 mm 1 mps 651 mmHg 83%
    05:00 +19°C° 0 mm 1 mps 651 mmHg 82%
    06:00 +20°C° 0 mm 1 mps 652 mmHg 78%
    07:00 +22°C° 0 mm 1 mps 653 mmHg 75%
    08:00 +23°C° 0 mm 1 mps 654 mmHg 71%
    09:00 +24°C° 0.4 mm 1 mps 654 mmHg 65%
    10:00 +26°C° 0.4 mm 2 mps 654 mmHg 59%
    11:00 +27°C° 0.4 mm 2 mps 655 mmHg 54%
    12:00 +28°C° 0.7 mm 3 mps 654 mmHg 53%
    13:00 +28°C° 0.7 mm 3 mps 653 mmHg 52%
    14:00 +28°C° 0.7 mm 3 mps 652 mmHg 51%
    15:00 +28°C° 0.8 mm 3 mps 652 mmHg 54%
    16:00 +27°C° 0.8 mm 3 mps 651 mmHg 56%
    17:00 +27°C° 0.8 mm 3 mps 651 mmHg 59%
    18:00 +25°C° 0.3 mm 2 mps 651 mmHg 66%
    19:00 +24°C° 0.3 mm 2 mps 651 mmHg 73%
    20:00 +22°C° 0.3 mm 1 mps 651 mmHg 80%
    21:00 +21°C° 0.5 mm 1 mps 651 mmHg 82%
    22:00 +21°C° 0.5 mm 1 mps 651 mmHg 85%
    23:00 +20°C° 0.5 mm 1 mps 652 mmHg 87%

    22 February, Thursday

    Time Temperature Precipitation Wind Pressure Humidity
    00:00 +20°C° 0.3 mm 1 mps 651 mmHg 87%
    01:00 +18°C° 0.3 mm 0 mps 651 mmHg 87%
    02:00 +18°C° 0.3 mm 0 mps 651 mmHg 86%
    03:00 +20°C° 0.1 mm 1 mps 651 mmHg 86%
    04:00 +19°C° 0.1 mm 1 mps 651 mmHg 86%
    05:00 +19°C° 0.1 mm 1 mps 651 mmHg 85%
    06:00 +20°C° 0 mm 1 mps 651 mmHg 81%
    07:00 +21°C° 0 mm 1 mps 652 mmHg 77%
    08:00 +23°C° 0 mm 1 mps 653 mmHg 73%
    09:00 +24°C° 0.1 mm 1 mps 653 mmHg 68%
    10:00 +25°C° 0.1 mm 2 mps 653 mmHg 64%
    11:00 +27°C° 0.1 mm 2 mps 653 mmHg 59%
    12:00 +27°C° 0.5 mm 3 mps 653 mmHg 58%
    13:00 +28°C° 0.5 mm 3 mps 652 mmHg 57%
    14:00 +28°C° 0.5 mm 3 mps 651 mmHg 56%
    15:00 +28°C° 1 mm 3 mps 651 mmHg 58%
    16:00 +27°C° 1 mm 3 mps 650 mmHg 60%
    17:00 +27°C° 1 mm 3 mps 650 mmHg 62%
    18:00 +25°C° 0.6 mm 2 mps 650 mmHg 69%
    19:00 +24°C° 0.6 mm 1 mps 650 mmHg 76%
    20:00 +22°C° 0.6 mm 1 mps 650 mmHg 82%
    21:00 +22°C° 0.5 mm 1 mps 650 mmHg 83%
    22:00 +21°C° 0.5 mm 1 mps 651 mmHg 84%
    23:00 +21°C° 0.5 mm 1 mps 651 mmHg 85%

    23 February, Friday

    Time Temperature Precipitation Wind Pressure Humidity
    00:00 +21°C° 0 mm 1 mps 651 mmHg 85%
    01:00 +19°C° 0 mm 0 mps 650 mmHg 85%
    02:00 +18°C° 0 mm 0 mps 650 mmHg 85%
    03:00 +18°C° 0 mm 0 mps 650 mmHg 85%
    04:00 +18°C° 0 mm 0 mps 650 mmHg 86%
    05:00 +18°C° 0 mm 0 mps 650 mmHg 86%
    06:00 +21°C° 0 mm 1 mps 650 mmHg 81%
    07:00 +22°C° 0 mm 1 mps 651 mmHg 76%
    08:00 +23°C° 0 mm 1 mps 652 mmHg 71%
    09:00 +25°C° 0 mm 1 mps 652 mmHg 65%
    10:00 +27°C° 0 mm 2 mps 652 mmHg 58%
    11:00 +29°C° 0 mm 2 mps 653 mmHg 52%
    12:00 +29°C° 0.1 mm 3 mps 652 mmHg 50%
    13:00 +30°C° 0.1 mm 3 mps 652 mmHg 48%
    14:00 +30°C° 0.1 mm 3 mps 652 mmHg 47%
    15:00 +29°C° 0.4 mm 3 mps 651 mmHg 51%
    16:00 +28°C° 0.4 mm 3 mps 651 mmHg 56%
    17:00 +27°C° 0.4 mm 3 mps 650 mmHg 61%
    18:00 +25°C° 1.2 mm 2 mps 650 mmHg 68%
    19:00 +24°C° 1.2 mm 2 mps 651 mmHg 74%
    20:00 +22°C° 1.2 mm 1 mps 651 mmHg 81%
    21:00 +22°C° 3.3 mm 1 mps 651 mmHg 83%
    22:00 +21°C° 3.3 mm 1 mps 652 mmHg 84%
    23:00 +21°C° 3.3 mm 1 mps 652 mmHg 86%
    Show more